Regional Weather Roundup
Issued by NWS

Home | Current Version | Previous Version | Graphics & Text | Print | Product List | Glossary Off
Versions: 1 2 3 4 5 6 7 8 9 10 11 12 13 14 15 16 17 18 19 20 21 22 23 24 25 26 27 28 29 30 31 32 33 34 35 36 37 38 39 40 41 42 43 44 45 46 47 48 49 50

473
ASUS43 KLSX 271007
RWRMO

WEATHER SUMMARY FOR MISSOURI
NATIONAL WEATHER SERVICE SPRINGFIELD MO
400 AM CST MON FEB 27 2017

NOTE: "FAIR" INDICATES FEW OR NO CLOUDS BELOW 12,000 FEET WITH NO
       SIGNIFICANT WEATHER AND/OR OBSTRUCTIONS TO VISIBILITY.
       CURRENT SKY AND/OR WEATHER CONDITIONS ARE NOT AVAILABLE FOR
       CHILLICOTHE AND FARMINGTON.

MOZ001>031-035>038-043-044-053-054-271100-
...NORTHERN AND WESTERN MISSOURI...

CITY           SKY/WX    TMP DP  RH WIND       PRES   REMARKS
KANSAS CTY INT MOCLDY    27  27 100 SE7       30.02S FOG     WCI  19
KANSAS C DTWN  FOG       30  29  96 CALM      30.03S VSB 1/2
LEE`S SUMMIT   FOG       31  31 100 CALM      30.03S VSB 1
ST JOSEPH      FOG       24  24 100 CALM      30.02S VSB<1/4
CHILLICOTHE      N/A     27  26  96 CALM      30.05F
KIRKSVILLE     FOG       23  23 100 CALM      30.05F VSB 1/4

$$
MOZ066>068-077>081-088>096-101>105-271100-
...SOUTHWEST MISSOURI...

CITY           SKY/WX    TMP DP  RH WIND       PRES   REMARKS
SPRINGFIELD    CLEAR     36  27  69 SE10      30.00S WCI  28
JOPLIN         CLEAR     35  29  78 E6        29.99S
BRANSON        PTCLDY    37  30  75 CALM      30.02F

$$
MOZ032>034-039>042-045>050-055>058-069>072-271100-
...CENTRAL MISSOURI...

CITY           SKY/WX    TMP DP  RH WIND       PRES   REMARKS
COLUMBIA       CLEAR     34  33  96 E7        30.05S WCI  28
JEFFERSON CITY CLEAR     31  30  96 CALM      30.07R
ROLLA          CLEAR     32  29  88 SE3       30.03S
SEDALIA        FOG       28  26  92 E5        30.05S VSB 1/4 WCI  23
WHITEMAN AFB   FOG       29  29 100 SE6       30.03F VSB 0   WCI  23
WARRENSBURG    FOG       27  25  93 CALM      30.03F VSB 1/4
OSAGE BEACH    CLEAR     29  27  92 NE5       30.05S FOG     WCI  24

$$
MOZ051-052-059>065-271100-
...EAST CENTRAL MISSOURI...

CITY           SKY/WX    TMP DP  RH WIND       PRES   REMARKS
ST LOUIS INTL  MOCLDY    41  34  76 E6        30.08F
SPIRIT OF STL  CLEAR     33  32  96 CALM      30.08S FOG
ST CHARLES     PTCLDY    36  34  92 E8        30.09S WCI  30

$$
MOZ072>076-082>087-097>100-106>115-271100-
...SOUTH CENTRAL AND SOUTHEAST MISSOURI...

CITY           SKY/WX    TMP DP  RH WIND       PRES   REMARKS
CAPE GIRARDEAU CLOUDY    45  40  82 E6        30.10F
FARMINGTON     CLEAR     41  33  73 S7        30.07S
POPLAR BLUFF   CLOUDY    46  42  86 SE6       30.07F
WEST PLAINS    CLEAR     36  26  67 NE3       30.04S

$$



USA.gov is the U.S. government's official web portal to all federal, state and local government web resources and services.